Location: Unspecified
(0.0000°N, 0.0000°E)
Time: 01:21:51
(UTC+00:00)

SR - All Passes

Search period start: 25 May 2016 00:00
Search period end: 04 June 2016 00:00
Orbit: 581 x 877 km, 66.7° (Epoch: 24 May)

Date Brightness Start Highest point End Pass type
(mag) Time Alt. Az. Time Alt. Az. Time Alt. Az.
25 May - 01:53:21 10° N 01:57:28 54° ENE 02:01:44 10° SSE night (unlit)
25 May - 12:40:35 10° SE 12:42:18 11° ESE 12:44:01 10° E daylight
25 May - 14:18:31 10° SSW 14:24:19 56° WNW 14:29:53 10° N daylight
26 May - 01:05:26 10° NNE 01:08:19 18° ENE 01:11:16 10° ESE night (unlit)
26 May - 02:47:19 10° WNW 02:50:05 17° WSW 02:52:56 10° SSW night (unlit)
26 May - 13:29:16 10° S 13:35:06 62° ESE 13:40:44 10° NNE daylight
27 May - 01:56:45 10° NW 02:00:50 49° WSW 02:05:06 10° S night (unlit)
27 May - 12:40:59 10° SSE 12:45:50 26° ESE 12:50:35 10° NE daylight
27 May - 14:23:00 10° SW 14:27:43 25° WNW 14:32:18 10° NNW daylight
28 May - 01:07:34 10° N 01:11:40 50° ENE 01:15:55 10° SSE night (unlit)
28 May - 11:55:23 10° ESE 11:56:31 11° ESE 11:57:39 10° E daylight
28 May - 13:32:43 10° SSW 13:38:32 59° WNW 13:44:08 10° N daylight
29 May - 00:19:46 10° NNE 00:22:31 17° ENE 00:25:20 10° ESE night (unlit)
29 May - 02:01:21 10° WNW 02:04:16 18° WSW 02:07:17 10° SSW night (unlit)
29 May - 12:43:31 10° S 12:49:20 59° ESE 12:54:56 10° NNE daylight
29 May - 14:30:21 10° WNW 14:31:09 10° WNW 14:31:57 10° WNW daylight
30 May - 01:10:54 10° NNW 01:15:01 53° WSW 01:19:20 10° S night (unlit)
30 May - 11:55:19 10° SSE 12:00:03 25° ESE 12:04:41 10° ENE daylight
30 May - 13:37:09 10° SW 13:41:56 26° WNW 13:46:36 10° NNW daylight
31 May - 00:21:47 10° N 00:25:51 47° ENE 00:30:05 10° SE night (unlit)
31 May - 12:46:57 10° SSW 12:52:46 62° WNW 12:58:22 10° N daylight
31 May - 23:34:05 10° NNE 23:36:42 16° ENE 23:39:23 10° ESE night (unlit)
01 Jun - 01:15:23 10° WNW 01:18:27 19° WSW 01:21:38 10° SSW night (unlit)
01 Jun - 11:57:46 10° S 12:03:33 56° ESE 12:09:07 10° NNE daylight
01 Jun - 13:43:55 10° W 13:45:22 11° WNW 13:46:49 10° NW daylight
02 Jun - 00:25:03 10° NNW 00:29:13 57° WSW 00:33:34 10° S night (unlit)
02 Jun - 11:09:39 10° SSE 11:14:17 24° ESE 11:18:47 10° ENE daylight
02 Jun - 12:51:17 10° SW 12:56:11 27° WNW 13:00:54 10° NNW daylight
02 Jun - 23:36:01 10° N 23:40:02 44° ENE 23:44:15 10° SE night (unlit)
03 Jun - 12:01:09 10° SSW 12:07:00 66° WNW 12:12:35 10° N daylight
03 Jun - 22:48:26 10° NE 22:50:54 15° ENE 22:53:23 10° ESE night (unlit)
